[[{"header":{"parameterUnit":"m.s-1","parameterCategory":1,"la1":30.2991,"la2":30.254,"lo1":-89.0895,"lo2":-89.0444,"dy":0.0017,"dx":0.0017,"nx":28,"ny":28,"refTime":"2024-03-10T21:00:00:Z","depth":0,"parameterNumber":2,"parameterNumberName":"U-component_of_WINDS"},"data":[0,0,0,0,0,0,0,0,0,0,0,0,0,0,0,0,0,0,0,0,0,0,0,0,0,0,0,0,0,0,0,0,0,0,0,0,0,0,0,0,0,0,0,0,0,0,0,0,0,0,0,0,0,0,0,0,0,0,0.198,0.198,0,0.1985,0.1985,0.1985,0.2004,0.2005,0.2005,0.2006,0.2009,0.2008,0.2008,0,0,0,0,0,0,0,0,0,0,0,0,0,0.1987,0.1987,0.198,0.198,0.198,0.1985,0.1985,0.1985,0.2004,0.2005,0.2005,0.2006,0.2009,0.2009,0.2008,0,0,0,0,0,0,0,0,0,0,0,0,0,0.1987,0.1986,0.198,0.199,0.1991,0.1985,0.1985,0.1985,0.2004,0.2005,0.2005,0.2006,0.2009,0.2009,0.2008,0.1991,0,0,0.2007,0.2006,0,0,0,0,0,0,0,0,0.1987,0.1987,0.1989,0.199,0.1991,0.1995,0.1988,0.1987,0.2004,0.1999,0.2006,0.2006,0.2003,0.2003,0.2003,0.1992,0.1992,0.2006,0.2006,0.2006,0.2006,0,0,0,0,0,0,0,0.1987,0.1986,0.1982,0.1989,0.199,0.1994,0.1995,0.1988,0.1997,0.2,0.2001,0.2001,0.2004,0.2003,0.2003,0.1992,0.2007,0.2006,0.2006,0.2006,0.1968,0.1967,0,0,0,0,0,0,0.1985,0.1986,0.1982,0.1982,0.199,0.1994,0.1995,0.1993,0.1997,0.1999,0.2001,0.2002,0.2004,0.2004,0.2003,0.1984,0.2006,0.2006,0.2005,0.1969,0.1968,0.1967,0,0,0,0,0,0,0.1986,0.1985,0.1981,0.1985,0.1984,0.1993,0.199,0.1992,0.1991,0.1998,0.2,0.1998,0.2004,0.2004,0.1994,0.1985,0.2005,0.2005,0.1969,0.1968,0.1967,0.1946,0,0,0,0,0,0,0.1986,0.1985,0.1979,0.1984,0.1984,0.1973,0.199,0.1992,0.1991,0.1993,0.1996,0.1998,0.2005,0.1995,0.1994,0.1984,0.2004,0.197,0.1969,0.1968,0.1948,0.1944,0.1942,0,0,0,0,0,0.1986,0.1972,0.1978,0.1977,0.1977,0.1972,0.1972,0.1981,0.199,0.1984,0.1988,0.1998,0.1986,0.1994,0.1993,0.1983,0.1971,0.1969,0.1968,0.1949,0.1945,0.1942,0,0,0,0,0,0,0.1964,0.1973,0.198,0.1967,0.1969,0.1975,0.1968,0.1976,0.1975,0.1977,0.1987,0.1988,0.1977,0.1979,0.1988,0.1967,0.198,0.1978,0.1966,0.1962,0.196,0.1959,0.2004,0,0,0,0,0,0.1958,0.1954,0.1962,0.195,0.195,0.1959,0.1957,0.1964,0.1966,0.1966,0.197,0.1971,0.1968,0.1966,0.1963,0.1948,0.195,0.1941,0.1938,0.1936,0.1934,0.1926,0.1923,0.1962,0.1962,0.1962,0,0,0.1945,0.1949,0.1946,0.1945,0.1947,0.1943,0.1959,0.1953,0.195,0.1965,0.1957,0.196,0.1962,0.195,0.1945,0.1951,0.1923,0.1934,0.1931,0.1931,0.1924,0.1921,0.1917,0.1961,0.1961,0.1961,0,0,0.1918,0.1921,0.1912,0.1914,0.1917,0.1923,0.1921,0.1927,0.193,0.1921,0.1933,0.1929,0.1923,0.1924,0.1924,0.19,0.1908,0.1898,0.1882,0.1875,0.1872,0.187,0.1861,0.1858,0.1897,0.1897,0.1897,0,0.1901,0.1895,0.1906,0.19,0.1899,0.1914,0.1905,0.1906,0.1908,0.1907,0.1915,0.1909,0.1911,0.19,0.1894,0.1893,0.1891,0.1898,0.1872,0.1869,0.1867,0.1859,0.1855,0.1895,0.1896,0.1896,0.1896,0,0.1874,0.187,0.1862,0.1864,0.1863,0.1855,0.1865,0.1863,0.187,0.1875,0.1867,0.1871,0.1869,0.1867,0.1874,0.1857,0.1861,0.187,0.1883,0.1862,0.1854,0.1851,0.1894,0.1894,0.1894,0.1895,0,0,0.1833,0.1843,0.1839,0.1841,0.1846,0.1843,0.1836,0.1835,0.1833,0.1834,0.1829,0.1824,0.1833,0.1832,0.184,0.1834,0.1814,0.1843,0.1844,0.1838,0.1796,0.1789,0.1785,0.182,0.182,0.1819,0.1796,0,0.1808,0.1797,0.1807,0.1794,0.179,0.1805,0.1799,0.1801,0.1806,0.1804,0.1809,0.1806,0.1818,0.1818,0.1812,0.1818,0.1806,0.182,0.1815,0.1815,0.1813,0.1781,0.1773,0.1751,0.1793,0.1792,0.1792,0,0.1776,0.1777,0.1764,0.1771,0.1769,0.1764,0.1765,0.1762,0.1765,0.177,0.177,0.1779,0.1773,0.1786,0.1778,0.1787,0.1786,0.1788,0.1788,0.1787,0.1801,0.1779,0.1744,0.174,0.1788,0.1788,0.1788,0,0.1747,0.1745,0.1737,0.1738,0.1746,0.1741,0.1745,0.1749,0.1748,0.1749,0.1748,0.1748,0.1748,0.1747,0.1756,0.1765,0.1747,0.1761,0.175,0.1749,0.1744,0.1744,0.1708,0.1744,0.1744,0.1745,0.1745,0,0.1718,0.1709,0.1724,0.1719,0.1709,0.1722,0.1712,0.1717,0.1721,0.1717,0.1729,0.1725,0.1738,0.1735,0.1742,0.1734,0.1734,0.1737,0.1739,0.1736,0.1735,0.1734,0.1736,0.1744,0.1744,0.1744,0.1744,0,0.1683,0.1693,0.1685,0.1694,0.1696,0.1688,0.1696,0.1691,0.1698,0.1693,0.1692,0.1702,0.17,0.1709,0.1708,0.1713,0.1701,0.1706,0.17,0.1701,0.169,0.1691,0.1651,0.1646,0.1686,0.1686,0.1686,0,0.1663,0.1657,0.1665,0.1664,0.1666,0.1664,0.1664,0.1676,0.1675,0.1679,0.1674,0.1673,0.1673,0.1668,0.1675,0.1675,0.1679,0.1665,0.1679,0.1676,0.1679,0.1679,0.1678,0.1662,0.1662,0.1661,0.1661,0,0.1626,0.1632,0.1631,0.1632,0.1632,0.1633,0.1635,0.1633,0.1646,0.1645,0.1643,0.1643,0.1642,0.1641,0.1642,0.1645,0.1655,0.1657,0.1654,0.165,0.1647,0.1649,0.1692,0.1657,0.1658,0.1658,0.1658,0.1658,0.1598,0.1594,0.1599,0.1598,0.1601,0.1603,0.16,0.1607,0.1605,0.1606,0.1614,0.161,0.1615,0.1618,0.162,0.1618,0.1624,0.162,0.1619,0.1618,0.1616,0.1648,0.1618,0.1618,0.1618,0.1618,0.1618,0,0.1562,0.1567,0.1566,0.1569,0.1568,0.1579,0.1582,0.1581,0.1578,0.1581,0.1581,0.1579,0.1579,0.1586,0.1586,0.1583,0.1588,0.1583,0.1583,0.1583,0.161,0.1612,0.1579,0.1579,0.1579,0.1579,0.1579,0.1579,0.1543,0.1536,0.1542,0.1537,0.1542,0.1539,0.154,0.1542,0.1545,0.1543,0.1543,0.1548,0.1553,0.1554,0.1554,0.1556,0.1556,0.1549,0.1553,0.1578,0.1581,0.1585,0.1587,0.1549,0.1549,0.1526,0.1526,0.1526]},{"header":{"parameterUnit":"m.s-1","parameterCategory":1,"la1":30.2991,"la2":30.254,"lo1":-89.0895,"lo2":-89.0444,"dy":0.0017,"dx":0.0017,"nx":28,"ny":28,"refTime":"2024-03-10T21:00:00:Z","depth":0,"parameterNumber":3,"parameterNumberName":"V-component_of_WINDS"},"data":[0,0,0,0,0,0,0,0,0,0,0,0,0,0,0,0,0,0,0,0,0,0,0,0,0,0,0,0,0,0,0,0,0,0,0,0,0,0,0,0,0,0,0,0,0,0,0,0,0,0,0,0,0,0,0,0,0,0,-4.8915,-4.8916,0,-4.9053,-4.9055,-4.9057,-4.9017,-4.9014,-4.9011,-4.9008,-4.9147,-4.9153,-4.9159,0,0,0,0,0,0,0,0,0,0,0,0,0,-4.8612,-4.8618,-4.8914,-4.8916,-4.8918,-4.9053,-4.9055,-4.9057,-4.9017,-4.9014,-4.901,-4.9007,-4.9145,-4.9152,-4.916,0,0,0,0,0,0,0,0,0,0,0,0,0,-4.8746,-4.862,-4.8914,-4.8915,-4.8916,-4.9053,-4.9055,-4.9058,-4.9018,-4.9014,-4.9009,-4.9006,-4.9142,-4.9152,-4.9161,-4.9305,0,0,-4.919,-4.9194,0,0,0,0,0,0,0,0,-4.8739,-4.8758,-4.8913,-4.8915,-4.8917,-4.9014,-4.8999,-4.914,-4.9019,-4.8979,-4.9008,-4.9003,-4.9106,-4.9118,-4.9153,-4.9311,-4.9317,-4.9191,-4.9197,-4.9201,-4.9204,0,0,0,0,0,0,0,-4.873,-4.8751,-4.8969,-4.8915,-4.8917,-4.8907,-4.8921,-4.9026,-4.9065,-4.8982,-4.898,-4.8997,-4.9106,-4.9144,-4.9156,-4.9319,-4.9191,-4.9199,-4.9205,-4.9209,-4.9603,-4.9608,0,0,0,0,0,0,-4.8719,-4.8744,-4.8965,-4.8973,-4.8816,-4.8916,-4.8932,-4.8987,-4.9063,-4.9071,-4.9,-4.8995,-4.913,-4.9145,-4.9161,-4.9335,-4.9201,-4.921,-4.9215,-4.9599,-4.9604,-4.961,0,0,0,0,0,0,-4.8713,-4.8739,-4.8959,-4.8858,-4.8885,-4.8926,-4.8987,-4.8992,-4.903,-4.9077,-4.9083,-4.9033,-4.9127,-4.9148,-4.927,-4.934,-4.9214,-4.9223,-4.9593,-4.96,-4.9607,-4.9685,0,0,0,0,0,0,-4.8704,-4.8737,-4.8793,-4.886,-4.8891,-4.9067,-4.8992,-4.8997,-4.9047,-4.904,-4.9109,-4.9116,-4.9126,-4.9256,-4.9279,-4.935,-4.923,-4.9587,-4.9596,-4.9605,-4.9676,-4.9694,-4.9709,0,0,0,0,0,-4.8694,-4.8808,-4.8796,-4.8823,-4.8961,-4.9071,-4.9089,-4.9098,-4.9053,-4.9109,-4.9139,-4.9114,-4.9328,-4.9269,-4.9295,-4.937,-4.9583,-4.9594,-4.9604,-4.9669,-4.969,-4.9708,0,0,0,0,0,0,-4.8747,-4.8817,-4.8804,-4.8944,-4.9002,-4.9064,-4.9135,-4.9121,-4.9192,-4.9183,-4.919,-4.9206,-4.9332,-4.9363,-4.9296,-4.9513,-4.9449,-4.9465,-4.9489,-4.951,-4.9526,-4.9515,-4.9238,0,0,0,0,0,-4.8775,-4.886,-4.8916,-4.9033,-4.9063,-4.9095,-4.9142,-4.9145,-4.9205,-4.9229,-4.9268,-4.9327,-4.9407,-4.946,-4.9536,-4.968,-4.9695,-4.9745,-4.9761,-4.9774,-4.9788,-4.9867,-4.989,-4.9645,-4.9645,-4.9645,0,0,-4.8834,-4.8883,-4.8935,-4.9045,-4.9091,-4.9177,-4.9115,-4.9209,-4.9273,-4.9243,-4.9361,-4.9393,-4.9458,-4.9592,-4.9653,-4.9622,-4.9859,-4.9788,-4.9798,-4.9805,-4.9881,-4.9904,-4.9925,-4.9652,-4.9651,-4.965,0,0,-4.8985,-4.9031,-4.9134,-4.9182,-4.9252,-4.9272,-4.9297,-4.9362,-4.9382,-4.9501,-4.9481,-4.9557,-4.9695,-4.9743,-4.9785,-4.9957,-4.9936,-4.9981,-5.0066,-5.0143,-5.0163,-5.018,-5.0241,-5.0263,-4.9995,-4.9995,-4.9995,0,-4.9049,-4.918,-4.9189,-4.9286,-4.9335,-4.9313,-4.9418,-4.9463,-4.9554,-4.9588,-4.9552,-4.9726,-4.9769,-4.9914,-4.9956,-4.9991,-5.002,-4.9973,-5.0159,-5.0177,-5.0193,-5.0252,-5.0275,-5.0,-5.0,-4.9999,-4.9999,0,-4.9255,-4.9346,-4.9421,-4.9512,-4.9569,-4.9669,-4.9693,-4.975,-4.9748,-4.9772,-4.9894,-4.9945,-5.0032,-5.0066,-5.0064,-5.0212,-5.019,-5.0157,-5.0092,-5.0221,-5.0277,-5.0299,-5.0007,-5.0006,-5.0004,-5.0003,0,0,-4.9443,-4.9539,-4.9566,-4.9608,-4.9684,-4.9754,-4.9853,-4.994,-4.9989,-5.0053,-5.0136,-5.0254,-5.0224,-5.0273,-5.0276,-5.0344,-5.0477,-5.0302,-5.0303,-5.0333,-5.0644,-5.0669,-5.0695,-5.0464,-5.0468,-5.0472,-5.0638,0,-4.9601,-4.9778,-4.979,-4.9948,-5.0033,-5.0014,-5.01,-5.0156,-5.0181,-5.0256,-5.0283,-5.0367,-5.0321,-5.035,-5.0416,-5.0447,-5.0539,-5.0435,-5.0541,-5.0545,-5.0526,-5.0724,-5.075,-5.0905,-5.066,-5.0664,-5.0666,0,-4.981,-4.9882,-5.005,-5.0116,-5.0152,-5.0229,-5.031,-5.0382,-5.0445,-5.0458,-5.0513,-5.0508,-5.0609,-5.054,-5.068,-5.0608,-5.0652,-5.0674,-5.068,-5.0691,-5.0614,-5.074,-5.0954,-5.0978,-5.07,-5.0698,-5.0695,0,-4.9931,-5.007,-5.0189,-5.0225,-5.0304,-5.036,-5.0395,-5.0454,-5.0506,-5.0576,-5.061,-5.069,-5.0735,-5.0797,-5.0813,-5.0761,-5.0952,-5.0885,-5.0966,-5.0966,-5.1007,-5.1004,-5.1232,-5.1035,-5.1034,-5.1034,-5.1033,0,-5.0107,-5.021,-5.0245,-5.0318,-5.0433,-5.0446,-5.0559,-5.0591,-5.0644,-5.0723,-5.071,-5.0784,-5.08,-5.0877,-5.089,-5.1004,-5.1024,-5.1037,-5.1039,-5.1039,-5.1037,-5.1068,-5.1057,-5.104,-5.1039,-5.1038,-5.1037,0,-5.0262,-5.0289,-5.0417,-5.0483,-5.0502,-5.0584,-5.064,-5.071,-5.0734,-5.0833,-5.0857,-5.0895,-5.0985,-5.1007,-5.1113,-5.1122,-5.1257,-5.1248,-5.1236,-5.1236,-5.1316,-5.1308,-5.1572,-5.1607,-5.1386,-5.1388,-5.139,0,-5.0372,-5.0452,-5.0527,-5.058,-5.0618,-5.0703,-5.0756,-5.0771,-5.0827,-5.0906,-5.0967,-5.1055,-5.1127,-5.1271,-5.1307,-5.1389,-5.1383,-5.1469,-5.1395,-5.1392,-5.1385,-5.138,-5.1388,-5.1484,-5.1486,-5.1488,-5.1489,0,-5.0566,-5.0576,-5.0654,-5.0738,-5.0803,-5.0869,-5.0932,-5.0975,-5.0999,-5.1062,-5.1155,-5.1211,-5.1321,-5.1409,-5.1492,-5.1527,-5.1513,-5.1513,-5.1536,-5.1536,-5.1526,-5.1533,-5.1275,-5.1507,-5.1505,-5.1504,-5.1503,-5.1502,-5.0703,-5.0773,-5.0837,-5.0925,-5.0975,-5.1035,-5.1104,-5.1138,-5.1216,-5.1308,-5.1312,-5.1413,-5.1474,-5.1584,-5.1624,-5.1703,-5.1676,-5.1709,-5.1718,-5.1726,-5.1734,-5.1514,-5.1717,-5.1717,-5.1717,-5.1716,-5.1716,0,-5.0896,-5.0937,-5.1018,-5.1108,-5.1177,-5.1159,-5.1228,-5.1287,-5.1377,-5.1436,-5.1508,-5.1615,-5.1701,-5.1744,-5.1829,-5.1884,-5.1879,-5.1906,-5.1902,-5.191,-5.1752,-5.1724,-5.1908,-5.1908,-5.1908,-5.1908,-5.1908,-5.1908,-5.1005,-5.1124,-5.1142,-5.1285,-5.1324,-5.1425,-5.1466,-5.1521,-5.1569,-5.1689,-5.1762,-5.179,-5.1843,-5.1932,-5.201,-5.202,-5.2052,-5.2082,-5.2089,-5.1941,-5.1921,-5.1903,-5.1876,-5.2089,-5.2089,-5.2241,-5.2242,-5.2243]}]]